#timestamp,LO_Frequency,Hit,StdDev 
1576062015.1,286047001.6,N
1576062035.9,286047004.4,Y
1576062055.7,286047003.6,P
1576062075.6,286047004.3,N
1576062095.4,286047002.2,N
1576062115.2,286047001.8,N
1576062135.1,286047003.8,N
1576062136.0,286047003.8,N
1576062155.8,286047004.1,N
1576062175.7,286047003.2,N
1576062195.5,286047004.0,N
1576062215.3,286047004.4,Y
1576062235.2,286047001.0,P
1576062255.0,286046999.9,N
1576062255.9,286046999.9,N
1576062275.7,286047000.8,N
1576062295.6,286046998.9,N
1576062315.4,286047000.7,N
1576062335.3,286047000.5,N
1576062355.1,286047002.3,N
1576062356.0,286047002.3,N
1576062375.8,286047002.8,N
1576062395.7,286047002.7,N
1576062415.5,286047000.4,N
1576062435.4,286047002.0,N
1576062455.2,286047000.4,N
1576062475.0,286047002.4,N
1576062475.9,286047002.4,N
1576062495.8,286047000.2,N
1576062515.6,286047000.9,N
1576062535.4,286046998.7,N
1576062555.3,286047000.7,N
1576062575.1,286047000.4,N
1576062595.9,286047000.4,N
1576062615.7,286046999.8,N
1576062635.5,286046999.8,N
1576062655.4,286047000.3,N
1576062675.2,286047001.4,N
1576062695.0,286047001.9,N
1576062695.9,286047001.9,N
1576062715.8,286047003.8,Y
1576062735.6,286047004.3,P
1576062755.5,286047002.3,N
1576062775.3,286047002.6,N
1576062795.1,286046999.7,N
1576062815.9,286047002.1,N
1576062835.7,286047002.0,N
1576062855.5,286047001.9,N
1576062875.4,286047001.3,N
1576062895.2,286047001.5,N
1576062915.1,286047002.1,N
1576062916.0,286047002.1,N
1576062935.8,286047001.0,N
1576062955.6,286047000.9,N
1576062975.5,286047000.7,N
1576062995.3,286047000.1,N
1576063015.2,286047000.0,N
1576063035.9,286047000.1,N
1576063055.7,286046999.8,N
1576063075.6,286047001.5,N
1576063095.4,286047002.4,N
1576063115.2,286047002.1,N
1576063135.1,286047002.4,N
1576063136.0,286047002.4,N
1576063155.8,286046999.9,N
1576063175.7,286047002.0,N
1576063195.5,286047004.0,Y
1576063215.3,286047002.1,P
1576063235.2,286047002.1,P
1576063255.0,286047002.5,P
1576063255.9,286047002.5,Y
1576063275.8,286047000.0,P
1576063295.6,286046998.6,N
1576063315.4,286046998.6,N
1576063335.3,286046998.9,N
1576063355.1,286046999.0,N
1576063375.8,286046999.0,N
1576063395.7,286046996.8,N
1576063415.5,286046995.4,Y
1576063435.4,286046998.5,P
1576063455.2,286047000.4,N
1576063475.0,286047000.7,N
1576063475.9,286047000.7,N
1576063495.8,286046998.1,N
1576063515.6,286047000.9,N
1576063535.4,286046998.1,N
1576063555.3,286046997.4,N
1576063575.1,286046997.4,N
1576063595.9,286046996.7,N
1576063615.7,286046996.9,N
1576063635.5,286046997.4,N
1576063655.4,286046996.6,N
1576063675.2,286046998.3,N
1576063695.0,286046999.1,N
1576063696.0,286046999.1,N
1576063715.8,286046999.6,N
1576063735.6,286046998.7,N
1576063755.5,286046998.5,N
1576063775.3,286046999.5,N
1576063795.1,286047000.2,N
1576063815.9,286047002.4,N
1576063835.7,286047000.3,N
1576063855.6,286047002.8,N
1576063875.4,286046999.8,N
1576063895.2,286046998.3,N
1576063915.1,286046999.3,N
1576063916.0,286046999.3,N
1576063935.8,286047000.3,N
1576063955.6,286047001.1,N
1576063975.5,286047000.7,N
1576063995.3,286047000.6,N
1576064015.2,286047001.0,N
1576064035.9,286047002.8,N
1576064055.7,286047002.7,N
1576064075.6,286047001.5,N
1576064095.4,286047001.4,N
1576064115.2,286047002.5,N
1576064135.1,286047000.6,N
1576064136.0,286047000.6,N
1576064155.8,286046999.9,N
1576064175.7,286047000.8,N
1576064195.5,286047001.0,N
1576064215.3,286047000.0,N
1576064235.2,286046999.8,N
1576064255.0,286047001.2,N
1576064255.9,286047001.2,N
1576064275.8,286046998.3,N
1576064295.6,286046999.8,N
1576064315.4,286047000.6,N
1576064335.3,286047000.3,N
1576064355.1,286046998.8,N
1576064375.8,286046999.4,N
1576064395.7,286046997.2,N
1576064415.5,286046996.7,N
1576064435.4,286046997.1,N
1576064455.2,286046996.7,N
1576064475.0,286046998.0,N
1576064475.9,286046998.0,N
1576064495.8,286046995.0,N
1576064515.6,286046996.6,N
1576064535.4,286046998.8,N
1576064555.3,286047001.2,N
1576064575.1,286046999.3,N
1576064595.9,286046997.0,N
1576064615.7,286046996.7,N
1576064635.5,286046996.8,N
1576064655.4,286046997.5,N
1576064675.2,286046998.0,N
1576064695.1,286046995.2,N
1576064696.0,286046995.2,N
1576064715.8,286046995.9,N
1576064735.6,286046996.3,N
1576064755.5,286046993.9,Y
1576064775.3,286046996.6,P
1576064795.1,286046996.9,P
1576064815.9,286046997.5,P
1576064835.7,286046997.7,Y
1576064855.6,286047000.8,P
1576064875.4,286046998.4,N
1576064895.2,286046998.9,N
1576064915.1,286046998.5,N
1576064916.0,286046998.5,N
1576064935.8,286046998.2,N
1576064955.7,286046998.7,N
1576064975.5,286046998.9,N
1576064995.3,286046999.8,N
1576065015.2,286046998.2,N
1576065035.0,286047001.0,N
1576065035.9,286047001.0,N
1576065055.7,286047002.8,N
1576065075.6,286046998.2,N
1576065095.4,286046998.6,N
1576065115.3,286046998.2,N
1576065135.1,286047001.1,N
1576065136.0,286047001.1,N
1576065155.8,286047011.9,Y
1576065175.7,286046998.6,P
1576065195.5,286046998.9,N
1576065215.4,286046998.5,P
1576065235.2,286046999.3,N
1576065255.0,286046999.5,N
1576065255.9,286046999.5,N
1576065275.8,286046997.3,Y
1576065295.6,286046999.6,P
1576065315.4,286046998.3,P
1576065335.3,286046998.3,P
1576065355.1,286047000.9,N
1576065375.9,286046998.4,N
1576065395.7,286046999.1,N
1576065415.5,286046999.2,N
1576065435.4,286046999.2,N
1576065455.2,286046999.4,N
1576065475.1,286046997.4,Y
1576065476.0,286046997.4,P
1576065495.8,286046997.2,P
1576065515.6,286046998.8,N
1576065535.5,286046998.8,N
1576065555.3,286046998.8,N
1576065575.2,286046998.8,N
1576065595.9,286046998.9,N
